Location: Kelshall
(52.0000°N, 0.0500°W)
Time: 22:37:35
(UTC+00:00)

Spot 2 Rocket - Pass Details

Date: 18 September 2020
Orbit: 758 x 772 km, 98.6° (Epoch: 20 October)

Event Time Altitude Azimuth Distance (km) Brightness Sun altitude
Exits shadow 21:28:18 55° 255° (WSW) 908 3.9 -28.4°
Maximum altitude 21:28:24 55° 259° (W) 908 3.9 -28.4°
Drops below altitude 10° 21:33:22 10° 338° (NNW) 2,300 6.8 -28.9°
Sets 21:35:44 0° 342° (NNW) 3,230 7.7 -29.2°
